TimeMDT,TemperatureF,Dew PointF,Humidity,Sea Level PressureIn,VisibilityMPH,Wind Direction,Wind SpeedMPH,Gust SpeedMPH,PrecipitationIn,Events,Conditions,WindDirDegrees,DateUTC
12:15 AM,60.8,53.6,77,30.04,10.0,NNE,6.9,-,N/A,,Partly Cloudy,20,2012-07-17 06:15:00
12:35 AM,60.8,53.6,77,30.04,10.0,North,6.9,-,N/A,,Mostly Cloudy,350,2012-07-17 06:35:00
12:55 AM,60.8,53.6,77,30.03,10.0,North,5.8,-,N/A,,Scattered Clouds,360,2012-07-17 06:55:00
1:15 AM,62.6,53.6,72,30.04,10.0,NNW,5.8,-,N/A,,Partly Cloudy,340,2012-07-17 07:15:00
1:35 AM,62.6,53.6,72,30.04,10.0,WNW,4.6,-,N/A,,Mostly Cloudy,290,2012-07-17 07:35:00
1:55 AM,62.6,53.6,72,30.04,10.0,Calm,Calm,-,N/A,,Scattered Clouds,0,2012-07-17 07:55:00
2:15 AM,62.6,53.6,72,30.04,10.0,Calm,Calm,-,N/A,,Scattered Clouds,0,2012-07-17 08:15:00
2:35 AM,62.6,55.4,77,30.02,10.0,NW,4.6,-,N/A,,Overcast,310,2012-07-17 08:35:00
2:55 AM,62.6,53.6,72,30.02,10.0,Calm,Calm,-,N/A,,Mostly Cloudy,0,2012-07-17 08:55:00
3:35 AM,60.8,53.6,77,30.01,10.0,SW,8.1,-,N/A,,Partly Cloudy,220,2012-07-17 09:35:00
3:55 AM,60.8,53.6,77,30.00,10.0,SSW,4.6,-,N/A,,Partly Cloudy,210,2012-07-17 09:55:00
4:15 AM,60.8,53.6,77,30.00,10.0,South,4.6,-,N/A,,Scattered Clouds,180,2012-07-17 10:15:00
4:35 AM,60.8,53.6,77,30.00,10.0,SSW,3.5,-,N/A,,Scattered Clouds,210,2012-07-17 10:35:00
4:55 AM,60.8,53.6,77,30.01,10.0,SW,9.2,-,N/A,,Mostly Cloudy,230,2012-07-17 10:55:00
5:15 AM,62.6,53.6,72,30.01,10.0,Calm,Calm,-,N/A,,Overcast,0,2012-07-17 11:15:00
5:35 AM,62.6,53.6,72,30.01,10.0,Calm,Calm,-,N/A,,Overcast,0,2012-07-17 11:35:00
5:55 AM,62.6,53.6,72,30.02,10.0,South,4.6,-,N/A,,Mostly Cloudy,190,2012-07-17 11:55:00
6:15 AM,62.6,53.6,72,30.02,10.0,SSW,5.8,-,N/A,,Mostly Cloudy,210,2012-07-17 12:15:00
6:35 AM,62.6,53.6,72,30.02,10.0,WSW,8.1,-,N/A,,Mostly Cloudy,240,2012-07-17 12:35:00
6:55 AM,62.6,53.6,72,30.03,10.0,SW,9.2,-,N/A,,Scattered Clouds,230,2012-07-17 12:55:00
7:15 AM,64.4,53.6,68,30.03,10.0,South,6.9,-,N/A,,Clear,190,2012-07-17 13:15:00
7:35 AM,64.4,53.6,68,30.03,10.0,SW,8.1,-,N/A,,Clear,230,2012-07-17 13:35:00
7:55 AM,64.4,53.6,68,30.04,10.0,SW,5.8,-,N/A,,Clear,230,2012-07-17 13:55:00
8:15 AM,66.2,53.6,64,30.05,10.0,NW,5.8,-,N/A,,Clear,320,2012-07-17 14:15:00
8:35 AM,66.2,55.4,68,30.05,10.0,NNW,3.5,-,N/A,,Clear,330,2012-07-17 14:35:00
8:55 AM,68.0,55.4,64,30.06,10.0,North,3.5,-,N/A,,Clear,360,2012-07-17 14:55:00
9:15 AM,69.8,53.6,56,30.05,10.0,Calm,Calm,-,N/A,,Scattered Clouds,0,2012-07-17 15:15:00
9:35 AM,71.6,53.6,53,30.05,10.0,WNW,3.5,-,N/A,,Partly Cloudy,300,2012-07-17 15:35:00
9:55 AM,71.6,51.8,50,30.05,10.0,Calm,Calm,-,N/A,,Clear,0,2012-07-17 15:55:00
10:15 AM,73.4,53.6,50,30.04,10.0,Calm,Calm,-,N/A,,Clear,0,2012-07-17 16:15:00
10:35 AM,73.4,51.8,47,30.03,10.0,Calm,Calm,-,N/A,,Clear,0,2012-07-17 16:35:00
10:55 AM,75.2,51.8,44,30.04,10.0,SE,3.5,-,N/A,,Clear,130,2012-07-17 16:55:00
11:15 AM,77.0,48.2,36,30.03,10.0,ESE,4.6,-,N/A,,Clear,110,2012-07-17 17:15:00
11:35 AM,78.8,46.4,32,30.03,10.0,SE,8.1,-,N/A,,Clear,140,2012-07-17 17:35:00
11:55 AM,78.8,48.2,34,30.02,10.0,ESE,6.9,-,N/A,,Clear,110,2012-07-17 17:55:00
12:15 PM,80.6,46.4,30,30.02,10.0,SE,5.8,-,N/A,,Clear,140,2012-07-17 18:15:00
12:35 PM,80.6,46.4,30,30.01,10.0,SSE,4.6,-,N/A,,Partly Cloudy,150,2012-07-17 18:35:00
12:55 PM,82.4,46.4,28,30.00,10.0,South,9.2,-,N/A,,Scattered Clouds,180,2012-07-17 18:55:00
1:15 PM,82.4,42.8,25,30.00,10.0,SSE,3.5,-,N/A,,Partly Cloudy,150,2012-07-17 19:15:00
1:35 PM,84.2,42.8,23,29.99,10.0,South,10.4,16.1,N/A,,Clear,190,2012-07-17 19:35:00
1:55 PM,82.4,42.8,25,29.98,10.0,South,11.5,-,N/A,,Clear,180,2012-07-17 19:55:00
2:36 PM,80.6,46.4,30,29.99,10.0,SSE,24.2,27.6,N/A,,Mostly Cloudy,150,2012-07-17 20:36:00
2:55 PM,80.6,46.4,30,29.99,10.0,SSE,16.1,26.5,N/A,,Partly Cloudy,150,2012-07-17 20:55:00
3:15 PM,82.4,44.6,26,29.99,10.0,SE,18.4,21.9,N/A,Thunderstorm,Clear,130,2012-07-17 21:15:00
3:35 PM,82.4,42.8,25,30.00,10.0,SE,17.3,21.9,N/A,,Partly Cloudy,130,2012-07-17 21:35:00
3:55 PM,82.4,42.8,25,30.00,10.0,ESE,20.7,25.3,N/A,,Clear,110,2012-07-17 21:55:00
4:15 PM,82.4,39.2,21,29.99,10.0,ESE,16.1,-,N/A,,Clear,120,2012-07-17 22:15:00
4:35 PM,82.4,41.0,23,29.99,10.0,SE,15.0,-,N/A,,Clear,130,2012-07-17 22:35:00
4:55 PM,82.4,39.2,21,29.98,10.0,SE,12.7,-,N/A,,Clear,130,2012-07-17 22:55:00
5:15 PM,82.4,41.0,23,29.97,10.0,SE,15.0,-,N/A,,Clear,130,2012-07-17 23:15:00
5:35 PM,82.4,41.0,23,29.97,10.0,SSE,11.5,-,N/A,,Clear,150,2012-07-17 23:35:00
5:55 PM,84.2,42.8,23,29.96,10.0,ESE,10.4,-,N/A,,Clear,120,2012-07-17 23:55:00
6:15 PM,82.4,41.0,23,29.96,10.0,SE,8.1,17.3,N/A,,Clear,140,2012-07-18 00:15:00
6:35 PM,84.2,39.2,20,29.96,10.0,SSE,12.7,-,N/A,,Clear,150,2012-07-18 00:35:00
6:55 PM,82.4,39.2,21,29.96,10.0,SSE,12.7,-,N/A,,Clear,160,2012-07-18 00:55:00
7:15 PM,82.4,41.0,23,29.97,10.0,SSE,15.0,-,N/A,,Clear,160,2012-07-18 01:15:00
7:35 PM,80.6,42.8,26,29.97,10.0,SSE,11.5,-,N/A,,Clear,150,2012-07-18 01:35:00
7:55 PM,80.6,42.8,26,29.97,10.0,SSE,12.7,-,N/A,,Partly Cloudy,150,2012-07-18 01:55:00
8:16 PM,78.8,44.6,30,29.97,10.0,SSE,11.5,-,N/A,,Clear,160,2012-07-18 02:16:00
8:35 PM,78.8,42.8,28,29.98,10.0,SSE,10.4,-,N/A,,Clear,150,2012-07-18 02:35:00
8:55 PM,75.2,44.6,34,29.98,10.0,SSE,8.1,-,N/A,,Clear,160,2012-07-18 02:55:00
9:15 PM,71.6,46.4,41,29.99,10.0,North,5.8,-,N/A,,Clear,350,2012-07-18 03:15:00
9:35 PM,73.4,44.6,36,30.00,10.0,ESE,5.8,-,N/A,,Clear,110,2012-07-18 03:35:00
9:55 PM,71.6,42.8,35,30.01,10.0,SE,10.4,-,N/A,,Clear,130,2012-07-18 03:55:00
10:15 PM,69.8,42.8,38,30.01,10.0,SSE,8.1,-,N/A,,Clear,160,2012-07-18 04:15:00
10:35 PM,68.0,44.6,43,30.02,10.0,South,5.8,-,N/A,,Clear,190,2012-07-18 04:35:00
10:55 PM,69.8,42.8,38,30.02,10.0,SW,5.8,-,N/A,,Clear,220,2012-07-18 04:55:00
11:15 PM,69.8,44.6,40,30.02,10.0,WSW,6.9,-,N/A,,Clear,250,2012-07-18 05:15:00
11:35 PM,66.2,44.6,46,30.02,10.0,North,4.6,-,N/A,,Clear,360,2012-07-18 05:35:00
11:55 PM,64.4,42.8,45,30.03,10.0,ENE,5.8,-,N/A,,Clear,70,2012-07-18 05:55:00